Weather reports worldwide

Advertisment
Eskdalemuir, United Kingdom (3162): temperature & dewpoint: 10.11.2018 10:00:00 - 16.11.2018 10:00:00 (GMT)Eskdalemuir, United Kingdom (3162): temperature -20cm & temperature -100cm: 10.11.2018 10:00:00 - 16.11.2018 10:00:00 (GMT)Eskdalemuir, United Kingdom (3162): wind speed & gusts: 10.11.2018 10:00:00 - 16.11.2018 10:00:00 (GMT)Eskdalemuir, United Kingdom (3162): wind direction: 10.11.2018 10:00:00 - 16.11.2018 10:00:00 (GMT)Eskdalemuir, United Kingdom (3162): reduced air pressure: 10.11.2018 10:00:00 - 16.11.2018 10:00:00 (GMT)Eskdalemuir, United Kingdom (3162): visibility: 10.11.2018 10:00:00 - 16.11.2018 10:00:00 (GMT)Eskdalemuir, United Kingdom (3162): sunshine duration: 10.11.2018 10:00:00 - 16.11.2018 10:00:00 (GMT)Eskdalemuir, United Kingdom (3162): precipitation: 10.11.2018 10:00:00 - 16.11.2018 10:00:00 (GMT)
Date & Time tt [°C] td [°C] tt -20cm [°C] tt -100cm [°C] ff [km/h] ff [kn] fx [km/h] fx [kn] dd ppp [hPa] vv [km] sd [min] rr [mm]
16.11.2018 10:00:00 11,0 10,4 - - 9 5 - - SSE 1024,5 3,2 0 0,0
16.11.2018 09:00:00 10,2 10,0 9,7 9,9 4 2 - - SSE 1024,1 3,5 0 0,0
16.11.2018 08:00:00 10,0 9,8 - - 4 2 - - S 1023,3 3,5 0 0,0
16.11.2018 07:00:00 9,9 9,7 - - 5 3 - - SSE 1022,5 2,4 0 0,2
16.11.2018 06:00:00 10,1 9,9 - - 8 4 - - SSE 1021,8 2,5 0 0,0
16.11.2018 05:00:00 10,4 9,9 - - 13 7 - - SSE 1021,0 4,3 0 0,0
16.11.2018 04:00:00 10,6 10,1 - - 15 8 - - SSE 1020,7 4,6 0 0,2
16.11.2018 03:00:00 10,6 10,4 - - 13 7 - - S 1020,4 2,6 0 0,0
16.11.2018 02:00:00 9,4 9,4 - - 8 4 - - SSE 1019,9 0,7 0 0,2
16.11.2018 01:00:00 9,0 8,9 - - 5 3 - - SE 1019,8 5 0 0,0
16.11.2018 00:00:00 9,2 8,8 - - 13 7 - - SW 1019,4 5 - 0,6
15.11.2018 23:00:00 10,1 9,7 - - 16 9 - - SSW 1018,3 3,9 0 0,6
15.11.2018 22:00:00 10,6 9,9 - - 22 12 - - S 1017,8 3,3 0 0,4
15.11.2018 21:00:00 10,9 9,4 - - 29 16 46 25 S 1017,1 10 0 0,0
15.11.2018 20:00:00 11,2 8,6 - - 26 14 - - S 1016,6 20 0 0,0
15.11.2018 19:00:00 10,9 8,8 - - 16 9 - - S 1016,0 19 0 0,0
15.11.2018 18:00:00 10,5 8,8 - - 11 6 - - S 1015,4 14 0 0,0
15.11.2018 17:00:00 10,6 8,6 - - 16 9 - - S 1014,7 25 0 0,0
15.11.2018 16:00:00 10,7 7,7 - - 13 7 - - S 1014,4 45 - 0,0
15.11.2018 15:00:00 10,2 7,0 - - 15 8 - - SSE 1014,8 50 - 0,0
15.11.2018 14:00:00 10,8 6,4 - - 16 9 - - S 1015,0 45 - 0,0
15.11.2018 13:00:00 11,1 6,3 - - 9 5 - - S 1015,0 35 60 0,0
15.11.2018 12:00:00 10,2 5,2 - - 11 6 - - SSE 1015,3 35 60 0,0
15.11.2018 11:00:00 9,3 4,7 - - 11 6 - - SSE 1015,6 30 60 0,0
15.11.2018 10:00:00 8,9 4,6 - - 4 2 - - SE 1016,2 35 60 0,0
15.11.2018 09:00:00 8,2 5,1 9,4 9,9 4 2 - - SSE 1016,5 45 36 0,0
15.11.2018 08:00:00 7,6 6,0 - - 2 1 - - SSE 1016,5 40 0 0,0
15.11.2018 07:00:00 7,7 5,8 - - 8 4 - - SSE 1016,6 35 0 0,0
15.11.2018 06:00:00 8,1 6,4 - - 11 6 - - SSE 1016,2 27 0 0,0
15.11.2018 05:00:00 8,9 6,9 - - 4 2 - - WSW 1016,1 26 0 0,0
15.11.2018 04:00:00 9,2 6,9 - - 9 5 - - S 1016,0 25 0 0,0
15.11.2018 03:00:00 9,4 6,9 - - 13 7 - - S 1015,6 29 0 0,0
15.11.2018 02:00:00 9,4 7,2 - - 11 6 - - SSE 1015,7 25 0 0,0
15.11.2018 01:00:00 9,5 7,2 - - 15 8 - - S 1015,7 22 0 0,0
15.11.2018 00:00:00 9,7 7,0 - - 21 11 - - SSW 1015,4 24 - 0,0
14.11.2018 23:00:00 10,1 7,0 - - 31 17 50 27 S 1014,8 24 0 0,0
14.11.2018 22:00:00 10,1 7,1 - - 16 9 - - S 1015,2 30 0 0,0
14.11.2018 21:00:00 10,1 7,4 - - 24 13 48 26 S 1014,7 27 0 0,0
14.11.2018 20:00:00 10,3 7,6 - - 31 17 48 26 SSW 1014,2 20 0 0,0
14.11.2018 19:00:00 10,1 8,2 - - 31 17 50 27 SSW 1014,2 21 0 0,0
14.11.2018 18:00:00 10,2 8,5 - - 28 15 46 25 S 1014,1 14 0 0,0
14.11.2018 17:00:00 10,1 9,1 - - 29 16 52 28 S 1013,9 10 0 0,0
14.11.2018 16:00:00 10,3 9,7 - - 35 19 59 32 S 1013,5 7 0 0,2
14.11.2018 15:00:00 10,4 10,1 - - 41 22 65 35 S 1013,3 2,8 0 1,2
14.11.2018 14:00:00 10,5 10,4 - - 37 20 70 38 SSW 1013,0 3,0 0 1,0
14.11.2018 13:00:00 10,7 10,6 - - 39 21 65 35 S 1012,7 3,5 0 2,2
14.11.2018 12:00:00 10,9 10,6 - - 39 21 65 35 S 1012,3 3,5 0 1,4
14.11.2018 11:00:00 10,8 10,5 - - 35 19 70 38 S 1011,7 4,5 0 0,8
14.11.2018 10:00:00 10,8 10,6 - - 41 22 65 35 S 1011,2 2,5 0 3,0
14.11.2018 09:00:00 10,8 10,5 9,2 9,9 41 22 61 33 SSW 1010,8 4,0 0 3,8
14.11.2018 08:00:00 10,5 10,1 - - 37 20 61 33 S 1010,7 3,5 0 6,8
14.11.2018 07:00:00 10,1 9,6 - - 35 19 55 30 S 1010,6 4,4 0 4,0
14.11.2018 06:00:00 9,6 9,0 - - 31 17 52 28 S 1010,6 7 0 1,2
14.11.2018 05:00:00 8,7 8,2 - - 21 11 - - S 1011,3 8 0 2,8
14.11.2018 04:00:00 8,9 8,3 - - 26 14 54 29 S 1011,5 5 0 0,8
14.11.2018 03:00:00 8,9 8,4 - - 28 15 50 27 S 1012,5 3,7 0 2,0
14.11.2018 02:00:00 8,8 8,3 - - 26 14 48 26 S 1013,2 3,2 0 1,6
14.11.2018 01:00:00 9,2 8,0 - - 26 14 46 25 SSE 1014,1 12 0 0,0
14.11.2018 00:00:00 9,1 8,4 - - 24 13 - - S 1014,5 5 - 0,2
13.11.2018 23:00:00 9,3 8,4 - - 28 15 - - S 1015,1 13 0 0,4
13.11.2018 22:00:00 9,2 8,6 - - 18 10 - - S 1015,6 8 0 0,6
13.11.2018 21:00:00 9,1 8,5 - - 24 13 46 25 S 1015,7 5 0 0,0
13.11.2018 20:00:00 9,3 8,3 - - 21 11 - - S 1015,7 12 0 0,0
13.11.2018 19:00:00 8,6 7,9 - - 21 11 - - S 1016,0 10 0 0,0
13.11.2018 18:00:00 7,8 7,0 - - 11 6 - - S 1016,2 15 0 0,0
13.11.2018 17:00:00 7,8 6,4 - - 13 7 - - S 1016,3 16 0 0,0
13.11.2018 16:00:00 7,9 6,3 - - 18 10 - - SSW 1016,1 18 0 0,0
13.11.2018 15:00:00 8,2 6,2 - - 15 8 - - SSW 1015,3 30 18 0,0
13.11.2018 14:00:00 8,7 6,4 - - 13 7 - - SSW 1014,9 30 6 0,0
13.11.2018 13:00:00 - - - - 21 11 - - SW - 25 - 0,0
13.11.2018 12:00:00 - - - - 15 8 - - S - 25 0 0,2
13.11.2018 11:00:00 7,5 6,6 - - 11 6 - - S 1012,9 16 0 0,0
13.11.2018 10:00:00 7,5 6,8 - - 15 8 - - S 1011,8 22 0 0,4
13.11.2018 09:00:00 7,6 7,0 9,2 9,7 16 9 - - SSW 1010,2 7 0 0,2
13.11.2018 08:00:00 7,8 6,8 - - 18 10 - - SSW 1008,2 8 0 1,0
13.11.2018 07:00:00 7,6 6,9 - - 21 11 - - SW 1006,7 4,2 0 1,0
13.11.2018 06:00:00 7,5 6,9 - - 22 12 - - SSW 1005,4 4,9 0 0,8
13.11.2018 05:00:00 7,5 6,9 - - 26 14 - - SSW 1004,2 6 0 0,8
13.11.2018 04:00:00 7,5 6,7 - - 21 11 - - SSW 1003,5 7 0 0,2
13.11.2018 03:00:00 7,5 6,6 - - 15 8 - - S 1003,2 40 0 0,0
13.11.2018 02:00:00 7,7 6,8 - - 15 8 - - SSW 1002,3 30 0 0,0
13.11.2018 01:00:00 7,7 7,0 - - 16 9 - - SSW 1001,8 20 0 0,0
13.11.2018 00:00:00 7,5 7,0 - - 16 9 - - SSW 1001,4 18 - 0,4
12.11.2018 23:00:00 6,7 6,3 - - 13 7 - - S 1001,1 10 0 1,6
12.11.2018 22:00:00 6,9 6,3 - - 16 9 - - S 1001,2 6 0 1,8
12.11.2018 21:00:00 7,1 6,2 - - 18 10 - - S 1001,3 17 0 0,0
12.11.2018 20:00:00 7,1 6,1 - - 22 12 - - S 1001,3 26 0 0,2
12.11.2018 19:00:00 7,0 6,3 - - 21 11 - - S 1001,2 35 0 0,6
12.11.2018 18:00:00 6,9 6,0 - - 16 9 - - SSE 1001,6 45 0 1,0
12.11.2018 17:00:00 7,7 6,7 - - 16 9 - - S 1001,0 8 0 0,4
12.11.2018 16:00:00 7,6 6,5 - - 18 10 - - S 1000,6 35 0 0,0
12.11.2018 15:00:00 7,6 6,4 - - 22 12 - - S 1000,8 35 0 0,0
12.11.2018 14:00:00 7,5 6,4 - - 22 12 - - S 1000,8 25 0 0,2
12.11.2018 13:00:00 8,2 5,9 - - 24 13 - - S 1000,6 18 0 0,0
12.11.2018 12:00:00 8,3 7,0 - - 24 13 54 29 S 1000,8 30 0 0,4
12.11.2018 11:00:00 8,6 7,3 - - 26 14 - - S 1000,7 22 0 0,0
12.11.2018 10:00:00 7,2 6,8 - - 11 6 - - SSE 1000,7 8 0 1,8
12.11.2018 09:00:00 6,8 6,2 9,2 9,7 18 10 - - SW 1001,1 4,0 0 6,0
12.11.2018 08:00:00 7,3 6,8 - - 15 8 - - S 1000,6 6 0 2,0
12.11.2018 07:00:00 7,5 6,9 - - 21 11 - - SSE 999,7 26 0 2,0
12.11.2018 06:00:00 7,7 7,2 - - 18 10 - - SSE 999,5 25 0 3,2
12.11.2018 05:00:00 7,6 7,0 - - 24 13 - - SSE 998,9 16 0 1,2
12.11.2018 04:00:00 7,5 7,0 - - 21 11 - - SSE 998,5 19 0 1,6
12.11.2018 03:00:00 7,4 6,9 - - 13 7 - - S 998,1 28 0 3,6
12.11.2018 02:00:00 7,5 6,8 - - 24 13 - - SSE 997,8 16 0 1,6
12.11.2018 01:00:00 7,0 6,5 - - 16 9 - - SSW 997,5 27 0 2,0
12.11.2018 00:00:00 7,0 5,8 - - 22 12 - - S 997,3 20 - 0,2
11.11.2018 23:00:00 6,6 5,7 - - 15 8 - - S 997,2 22 0 0,2
11.11.2018 22:00:00 6,5 5,7 - - 22 12 - - SSE 997,5 12 0 1,6
11.11.2018 21:00:00 6,0 5,3 - - 11 6 - - S 997,0 50 0 0,2
11.11.2018 20:00:00 6,5 5,8 - - 24 13 - - S 997,0 13 0 2,4
11.11.2018 19:00:00 5,0 4,7 - - 11 6 - - S 996,0 4,1 0 0,4
11.11.2018 18:00:00 5,3 5,1 - - 5 3 - - SSE 995,5 21 0 0,0
11.11.2018 17:00:00 6,3 5,8 - - 11 6 - - S 995,1 45 0 0,0
11.11.2018 16:00:00 6,8 5,8 - - 16 9 - - S 994,0 50 0 0,0
11.11.2018 15:00:00 7,1 6,0 - - 21 11 - - SSW 993,0 35 0 0,4
11.11.2018 14:00:00 7,1 6,6 - - 13 7 - - SSW 992,3 3,8 0 0,6
11.11.2018 13:00:00 7,0 6,6 - - 13 7 - - SSE 991,7 10 0 2,6
11.11.2018 12:00:00 7,0 6,5 - - 11 6 - - SSE 991,4 5 0 0,8
11.11.2018 11:00:00 6,9 6,2 - - 9 5 - - SSE 991,2 10 0 0,2
11.11.2018 10:00:00 6,9 5,8 - - 5 3 - - SE 991,0 20 12 0,0
11.11.2018 09:00:00 6,1 5,5 9,4 9,7 5 3 - - S 991,0 11 0 0,0
11.11.2018 08:00:00 5,9 5,5 - - 13 7 - - SSE 990,6 9 0 0,0
11.11.2018 07:00:00 6,1 5,8 - - 5 3 - - SSE 989,9 8 0 0,0
11.11.2018 06:00:00 6,1 6,0 - - 8 4 - - SE 989,8 7 0 0,0
11.11.2018 05:00:00 6,0 5,9 - - 4 2 - - S 989,9 9 0 0,2
11.11.2018 04:00:00 5,8 5,8 - - 2 1 - - E 989,8 6 0 0,4
11.11.2018 03:00:00 5,4 5,4 - - 8 4 - - SSE 990,0 2,8 0 1,0
11.11.2018 02:00:00 5,1 5,1 - - 2 1 - - NNW 990,1 10 0 0,0
11.11.2018 01:00:00 4,9 4,8 - - 2 1 - - WNW 990,1 7 0 0,2
11.11.2018 00:00:00 4,8 4,6 - - 5 3 - - SSE 990,1 12 - 0,0
10.11.2018 23:00:00 5,6 5,2 - - 5 3 - - S 990,0 40 0 0,0
10.11.2018 22:00:00 6,8 6,2 - - 15 8 - - S 989,5 45 0 0,2
10.11.2018 21:00:00 6,4 6,1 - - 5 3 - - S 989,3 10 0 0,4
10.11.2018 20:00:00 6,0 5,8 - - 2 1 - - E 989,1 5 0 0,2
10.11.2018 19:00:00 5,9 5,7 - - 4 2 - - W 988,9 40 0 0,4
10.11.2018 18:00:00 6,1 5,6 - - 2 1 - - S 988,6 22 0 1,8
10.11.2018 17:00:00 6,9 6,3 - - 8 4 - - SSW 988,4 10 0 0,6
10.11.2018 16:00:00 7,8 7,0 - - 11 6 - - SSE 988,2 7 0 0,8
10.11.2018 15:00:00 8,3 6,3 - - 11 6 - - SSE 988,1 26 0 0,0
10.11.2018 14:00:00 8,5 6,8 - - 9 5 - - SSE 988,5 23 0 0,0
10.11.2018 13:00:00 8,3 7,1 - - 16 9 - - S 988,2 19 0 0,0
10.11.2018 12:00:00 8,7 6,9 - - 22 12 - - S 988,2 23 12 0,0
10.11.2018 11:00:00 8,1 7,2 - - 16 9 - - SSE 988,4 14 6 0,0
10.11.2018 10:00:00 7,9 7,1 - - 13 7 - - S 987,8 16 0 0,2

tt = temperature
td = dewpoint
tt -20cm = temperature -20cm
tt -100cm = temperature -100cm
ff = wind speed
fx = gusts
dd = wind direction
ppp = reduced air pressure
vv = visibility
sd = sunshine duration
rr = precipitation

Next stations